Location: Newark
(43.0000°N, 1.6781°W)
Time: 17:36:56
(UTC+00:00)

SO-50 - Visible Passes

Search period start: 08 May 2021 00:00
Search period end: 18 May 2021 00:00
Orbit: 617 x 668 km, 64.6° (Epoch: 08 May)

Date Brightness Start Highest point End Pass type
(mag) Time Alt. Az. Time Alt. Az. Time Alt. Az.
08 May ? 00:00:15 10° N 00:02:05 12° NNE 00:03:56 10° NE visible
08 May ? 01:38:54 10° NNW 01:43:27 59° NE 01:44:41 43° ESE visible
08 May ? 03:20:27 10° WNW 03:22:11 16° W 03:22:11 16° W visible
09 May ? 00:24:00 10° N 00:27:34 21° NE 00:30:00 15° E visible
09 May ? 02:03:48 10° NW 02:07:32 51° WNW 02:07:32 51° WNW visible
10 May ? 00:48:24 10° NNW 00:52:47 41° NE 00:53:13 40° ENE visible
10 May ? 02:29:13 10° WNW 02:30:46 18° WNW 02:30:46 18° WNW visible
10 May ? 23:33:46 10° N 23:36:43 16° NE 23:39:04 12° ENE visible
11 May ? 01:13:08 10° NW 01:16:38 52° NW 01:16:38 52° NW visible
11 May ? 23:57:58 10° NNW 00:02:03 30° NE 00:02:38 29° ENE visible
12 May ? 01:38:16 10° NW 01:40:13 22° WNW 01:40:13 22° WNW visible
12 May ? 22:43:45 10° N 22:45:48 13° NNE 22:47:53 10° ENE visible
13 May ? 00:22:33 10° NNW 00:26:18 53° N 00:26:18 53° N visible
13 May ? 23:07:37 10° N 23:11:15 23° NE 23:12:29 20° ENE visible
14 May ? 00:47:29 10° NW 00:50:04 32° WNW 00:50:04 32° WNW visible
14 May ? 23:32:02 10° NNW 23:36:18 44° NE 23:36:18 44° NE visible
15 May ? 01:12:58 10° WNW 01:13:54 14° WNW 01:13:54 14° WNW visible
15 May ? 22:17:21 10° N 22:20:26 17° NE 22:22:36 13° ENE visible
15 May ? 23:56:47 10° NW 00:00:11 49° NW 00:00:11 49° NW visible
16 May ? 22:41:35 10° NNW 22:45:44 32° NE 22:46:31 30° ENE visible
17 May ? 00:21:59 10° NW 00:24:07 23° WNW 00:24:07 23° WNW visible
17 May ? 21:27:16 10° N 21:29:31 13° NE 21:31:48 10° ENE visible
17 May ? 23:06:11 10° NNW 23:10:30 66° NNE 23:10:30 66° NNE visible
